User: anonymous   Login
Location: Newark
(31.5350°N, 35.0986°E)
Time: 17:05:26
(UTC+00:00)
Language:

Explorer 7 - Orbit

View from above orbital plane
View from above orbital plane
View from above satellite
View from above satellite

Ground track
Ground track

The orbit data is extracted from the following two-line orbital elements,

1    22U 59009A   19265.13438266  .00000077  00000-0  28863-4 0  9998
2    22  50.2843 285.5278 0140197 309.8435  49.0246 14.94926469185035
Epoch (UTC): 22 September 2019 03:13:30
Eccentricity: 0.0140197
inclination: 50.2843°
perigee height: 485 km
apogee height: 680 km
right ascension of ascending node: 285.5278°
argument of perigee: 309.8435°
revolutions per day: 14.94926469
mean anomaly at epoch: 49.0246°
orbit number at epoch: 18503

The dashed part of the orbit path shows where the satellite is in the earth's shadow,  

DLR